Location: Castro Valley
(37.6940°N, 122.0850°W)
Time: 03:54:36
(UTC-08:00)

Amateur Radio Satellites - All Passes

Search period start: 05 March 2015 03:24
Search period end: 06 March 2015 03:24
Location: Castro Valley, 37.6940°N, 122.0850°W

Satellite Date Start Highest point End Downlink Frequencies (MHz)
Time Altitude Azimuth
STARS 05 Mar 03:24:58 03:28:15 20° 267° (W) 03:31:26 437.465
KKS-1 05 Mar 03:26:12 03:28:21 13° 270° (W) 03:30:15 437.445
HORYU 2 05 Mar 03:44:06 03:48:34 87° 103° (ESE) 03:53:02 437.375
JAS-2 05 Mar 03:46:21 03:53:13 37° 95° (E) 04:00:22 435.910
AO-7 05 Mar 04:09:30 04:17:43 63° 103° (ESE) 04:25:55 29.400- 29.500
Gurwin Techsat 1B 05 Mar 04:19:33 04:22:32 15° 296° (WNW) 04:25:15 435.225
YUBILEINY 05 Mar 04:22:37 04:30:36 38° 272° (W) 04:38:23 435.215
JUGNU 05 Mar 04:23:41 04:25:03 11° 189° (S) 04:26:22 437.505
SRMSAT 05 Mar 04:29:10 04:31:59 13° 181° (S) 04:34:48 437.500
RS-15 05 Mar 04:37:11 04:43:50 17° 14° (NNE) 04:50:54 29.354- 29.394
MOZHAYETS 4 05 Mar 04:54:49 04:58:51 30° 264° (W) 05:02:53
PRISM 05 Mar 04:59:47 05:02:47 20° 69° (ENE) 05:05:56 437.425
STRAND 1 05 Mar 05:00:09 05:02:59 16° 64° (ENE) 05:06:03 437.568
PCSat 05 Mar 05:02:09 05:07:26 50° 58° (ENE) 05:12:41 145.827
CUTE-I 05 Mar 05:09:13 05:11:10 12° 88° (E) 05:13:28 437.470
CUBESAT XI-V 05 Mar 05:24:03 05:28:22 38° 72° (ENE) 05:32:45 437.345
JAS-2 05 Mar 05:31:08 05:38:17 46° 290° (WNW) 05:45:38 435.910
AO-7 05 Mar 06:03:12 06:10:02 29° 300° (WNW) 06:16:38 29.400- 29.500
PRISM 05 Mar 06:34:29 06:38:09 29° 264° (W) 06:41:48 437.425
STRAND 1 05 Mar 06:36:38 06:41:43 62° 259° (WSW) 06:46:51 437.568
AIST 1 05 Mar 06:36:52 06:41:08 57° 95° (E) 06:45:28
Cubesat XI-IV 05 Mar 06:38:23 06:43:47 85° 285° (WNW) 06:49:09 437.490
GONETS M04 05 Mar 06:43:04 06:44:07 10° 56° (NE) 06:45:59
PCSat 05 Mar 06:46:33 06:50:31 20° 253° (WSW) 06:54:17 145.827
CUTE-I 05 Mar 06:46:33 06:51:55 73° 286° (WNW) 06:57:14 437.470
RS-15 05 Mar 06:49:53 07:00:31 43° 45° (NE) 07:11:45 29.354- 29.394
CUBESAT XI-V 05 Mar 07:02:33 07:06:00 19° 268° (W) 07:09:18 437.345
ISS 05 Mar 07:28:48 07:31:58 55° 136° (SE) 07:35:08 145.825
GOMX 1 05 Mar 07:46:32 07:47:32 11° 88° (E) 07:48:48 467.674
SEEDS 05 Mar 07:53:18 07:53:32 10° 89° (E) 07:54:05 437.485
BRITE-PL 05 Mar 07:54:32 07:58:01 23° 93° (E) 08:01:25 437.365/2234.400
CANX-2 05 Mar 07:58:58 08:01:42 17° 92° (E) 08:04:35 2200.000
DOVE 4 05 Mar 08:06:55 08:08:40 13° 90° (E) 08:10:38 437.250
HO-68 05 Mar 08:09:44 08:15:56 32° 95° (E) 08:22:16 435.675
CUTE 1.7 + AOD 2 05 Mar 08:16:32 08:20:01 25° 95° (E) 08:23:34 437.475
AIST 1 05 Mar 08:17:58 08:19:19 11° 292° (WNW) 08:20:23
Cubesat XI-IV 05 Mar 08:21:58 08:23:10 11° 299° (WNW) 08:24:02 437.490
O/OREOS (USA 219) 05 Mar 08:32:21 08:36:51 64° 108° (ESE) 08:41:24 437.305
GONETS M04 05 Mar 08:34:34 08:43:14 64° 79° (E) 08:51:58
ANTELSAT 05 Mar 08:43:02 08:44:07 11° 66° (ENE) 08:45:27 437.575/2403.000
AAUSAT CUBESAT 2 05 Mar 08:49:07 08:52:57 34° 97° (E) 08:56:49 437.432
COMPASS 1 05 Mar 08:53:54 08:57:57 46° 99° (E) 09:02:01 437.405
SO-50 05 Mar 08:56:55 09:00:55 24° 48° (NE) 09:04:58 436.795
RS-15 05 Mar 09:02:14 09:13:28 59° 247° (WSW) 09:25:04 29.354- 29.394
Oscar 11 05 Mar 09:03:25 09:06:52 23° 94° (E) 09:10:24 145.826/435.025
ISS 05 Mar 09:06:14 09:08:37 19° 334° (NNW) 09:10:59 145.825
BUGSAT 1 05 Mar 09:19:11 09:20:14 11° 66° (ENE) 09:21:34 437.445
GOMX 1 05 Mar 09:22:00 09:26:11 51° 286° (WNW) 09:30:13 467.674
QB50P1 05 Mar 09:22:40 09:25:20 17° 68° (ENE) 09:28:08 145.935-145.965
SEEDS 05 Mar 09:25:38 09:29:49 58° 285° (WNW) 09:33:59 437.485
QB50P2 05 Mar 09:27:14 09:30:13 19° 69° (ENE) 09:33:19 145.880/145.840
CINEMA 3 05 Mar 09:28:38 09:32:46 62° 101° (E) 09:36:53 145.822/145.860
CUBEBUG 2 05 Mar 09:29:41 09:33:26 33° 97° (E) 09:37:15 437.445
BRITE-PL 05 Mar 09:32:52 09:36:35 26° 290° (WNW) 09:40:03 437.365/2234.400
DX 1 05 Mar 09:32:56 09:36:18 22° 94° (E) 09:39:46 434.975-435.025
CANX-2 05 Mar 09:33:53 09:37:48 35° 287° (WNW) 09:41:41 2200.000
UNISAT 6 05 Mar 09:37:25 09:41:36 45° 73° (ENE) 09:45:44 437.425
HUMSAT D 05 Mar 09:37:34 09:39:27 13° 91° (E) 09:41:35 437.325/437.525
DELFI C3 05 Mar 09:39:05 09:43:03 47° 99° (E) 09:47:01 145.870
DUCHIFAT 1 05 Mar 09:39:07 09:42:34 25° 70° (ENE) 09:46:06 145.980
DOVE 4 05 Mar 09:42:49 09:46:49 43° 287° (WNW) 09:50:44 437.250
AISAT 05 Mar 09:50:46 09:53:03 14° 91° (E) 09:55:32 437.250
CUTE 1.7 + AOD 2 05 Mar 09:52:22 09:55:54 25° 289° (WNW) 09:59:20 437.475
FUNcube-1 05 Mar 09:53:50 09:57:47 41° 99° (E) 10:01:46 145.935
ZACube-1 05 Mar 09:56:10 10:00:10 45° 99° (E) 10:04:13 437.345
HO-68 05 Mar 09:57:03 10:03:51 46° 292° (WNW) 10:10:35 435.675
UKube-1 05 Mar 09:58:07 10:02:13 41° 98° (E) 10:06:19 .
VELOX 1 05 Mar 09:58:24 10:01:13 17° 92° (E) 10:04:12 145.980
TIGRISAT 05 Mar 10:00:47 10:05:11 83° 77° (ENE) 10:09:30 435.000
POPSAT HIP 1 05 Mar 10:01:10 10:05:15 45° 74° (ENE) 10:09:21 437.405
POLYITAN 1 05 Mar 10:02:10 10:06:17 47° 74° (ENE) 10:10:25 437.675
O/OREOS (USA 219) 05 Mar 10:14:37 10:16:50 13° 307° (NW) 10:18:49 437.305
ANTELSAT 05 Mar 10:16:09 10:20:30 63° 259° (W) 10:24:48 437.575/2403.000
UWE-3 05 Mar 10:22:03 10:26:11 68° 285° (WNW) 10:30:21 435.000/436.395/437.385
NANOSAT C BR1 05 Mar 10:22:55 10:27:12 83° 78° (ENE) 10:31:29 145.865
ESTCUBE 1 05 Mar 10:25:17 10:28:07 17° 91° (E) 10:31:07 437.505/2401.250
AAUSAT CUBESAT 2 05 Mar 10:25:29 10:28:23 18° 291° (WNW) 10:31:09 437.432
COMPASS 1 05 Mar 10:31:04 10:33:19 14° 293° (WNW) 10:35:24 437.405
GONETS M04 05 Mar 10:32:39 10:39:31 25° 276° (W) 10:46:03
50 SAT 05 Mar 10:36:43 10:40:32 46° 99° (E) 10:44:22 437.505
SO-50 05 Mar 10:36:59 10:41:41 43° 245° (WSW) 10:46:17 436.795
Oscar 11 05 Mar 10:39:22 10:43:03 27° 289° (WNW) 10:46:39 145.826/435.025
BUGSAT 1 05 Mar 10:51:02 10:55:16 62° 259° (W) 10:59:32 437.445
QB50P1 05 Mar 10:56:56 11:00:57 38° 262° (W) 11:04:58 145.935-145.965
DANDE 05 Mar 10:57:35 11:00:12 89° 80° (E) 11:02:55 436.750
QB50P2 05 Mar 11:02:02 11:05:56 33° 263° (W) 11:09:49 145.880/145.840
CUBEBUG 2 05 Mar 11:07:06 11:09:58 18° 291° (WNW) 11:12:42 437.445
DX 1 05 Mar 11:08:48 11:12:35 29° 290° (WNW) 11:16:18 434.975-435.025
CUSAT 1 05 Mar 11:09:30 11:11:55 32° 263° (W) 11:14:30 437.405
HUMSAT D 05 Mar 11:11:37 11:15:31 42° 286° (WNW) 11:19:26 437.325/437.525
DUCHIFAT 1 05 Mar 11:14:48 11:18:22 25° 265° (W) 11:21:52 145.980
DELFI C3 05 Mar 11:15:59 11:17:54 13° 293° (WNW) 11:19:37 145.870
UNISAT 6 05 Mar 11:16:17 11:18:41 14° 269° (W) 11:20:51 437.425
CUBEBUG 1 05 Mar 11:18:30 11:22:52 60° 101° (E) 11:27:09 437.445
AISAT 05 Mar 11:25:44 11:30:00 46° 287° (WNW) 11:34:12 437.250
FUNcube-1 05 Mar 11:31:28 11:33:51 15° 292° (WNW) 11:36:04 145.935
TISAT 1 05 Mar 11:32:41 11:35:24 17° 92° (E) 11:38:16 437.305
VELOX 1 05 Mar 11:33:52 11:38:01 38° 288° (WNW) 11:42:06 145.980
ZACube-1 05 Mar 11:34:04 11:36:14 14° 293° (WNW) 11:38:12 437.345
UKube-1 05 Mar 11:35:17 11:38:05 16° 293° (WNW) 11:40:43 .
POPSAT HIP 1 05 Mar 11:39:07 11:41:26 14° 269° (W) 11:43:32 437.405
SPROUT 05 Mar 11:39:11 11:42:37 24° 94° (E) 11:46:06 437.525
POLYITAN 1 05 Mar 11:40:24 11:42:32 13° 270° (W) 11:44:27 437.675
ESTCUBE 1 05 Mar 12:00:56 12:05:15 41° 287° (WNW) 12:09:29 437.505/2401.250
50 SAT 05 Mar 12:13:31 12:15:11 12° 293° (WNW) 12:16:40 437.505
Gurwin Techsat 1B 05 Mar 12:21:54 12:22:57 11° 62° (ENE) 12:24:20 435.225
Oscar 19 05 Mar 12:22:05 12:26:56 44° 72° (ENE) 12:31:48 437.125/150
ITAMSAT 1 05 Mar 12:29:04 12:32:22 18° 65° (ENE) 12:35:52 435.822/435.867
SWISSCUBE 05 Mar 12:35:53 12:38:32 15° 91° (E) 12:41:23 437.505
BEESAT 05 Mar 12:43:39 12:46:37 17° 91° (E) 12:49:48 436.000
CUBEBUG 1 05 Mar 12:57:00 12:58:46 12° 295° (WNW) 13:00:19 437.445
TISAT 1 05 Mar 13:07:31 13:11:23 34° 288° (WNW) 13:15:09 437.305
ITUPSAT 1 05 Mar 13:12:01 13:16:21 33° 97° (E) 13:20:42 437.325
SPROUT 05 Mar 13:15:05 13:18:42 26° 289° (WNW) 13:22:13 437.525
AO-7 05 Mar 13:18:48 13:22:47 15° 52° (NE) 13:27:13 29.400- 29.500
KKS-1 05 Mar 13:42:23 13:43:45 12° 89° (E) 13:45:25 437.445
Gurwin Techsat 1B 05 Mar 13:56:55 14:02:15 88° 76° (ENE) 14:07:36 435.225
ISS 05 Mar 13:58:08 14:01:06 33° 33° (NNE) 14:04:05 145.825
Oscar 19 05 Mar 14:02:46 14:06:32 20° 268° (W) 14:10:08 437.125/150
ITAMSAT 1 05 Mar 14:06:22 14:11:28 55° 259° (W) 14:16:38 435.822/435.867
SWISSCUBE 05 Mar 14:12:05 14:16:46 51° 287° (WNW) 14:21:24 437.505
BEESAT 05 Mar 14:20:10 14:24:47 46° 287° (WNW) 14:29:20 436.000
HORYU 2 05 Mar 14:40:34 14:44:56 63° 75° (ENE) 14:49:20 437.375
ITUPSAT 1 05 Mar 14:50:12 14:54:06 24° 292° (WNW) 14:57:53 437.325
AO-7 05 Mar 15:06:03 15:14:20 72° 70° (ENE) 15:22:38 29.400- 29.500
STARS 05 Mar 15:15:17 15:19:42 88° 103° (ESE) 15:24:04 437.465
KKS-1 05 Mar 15:16:30 15:20:51 56° 286° (WNW) 15:25:11 437.445
YUBILEINY 05 Mar 15:23:48 15:32:08 53° 91° (E) 15:40:36 435.215
VERMONT LUNAR 05 Mar 15:25:50 15:28:52 29° 151° (SSE) 15:31:57 437.305
ISS 05 Mar 15:34:49 15:37:26 22° 228° (SW) 15:40:00 145.825
JAS-2 05 Mar 15:41:22 15:46:51 71° 74° (ENE) 15:53:04 435.910
BEESAT 3 05 Mar 15:50:35 15:54:20 37° 115° (ESE) 15:58:10 437.485
PHONESAT 2.4 05 Mar 15:53:12 15:56:07 23° 148° (SSE) 15:59:06 2401.200-2431.200
BEESAT 2 05 Mar 16:19:28 16:23:32 68° 118° (ESE) 16:27:41 435.950
Cubesat XI-IV 05 Mar 16:21:12 16:24:18 16° 64° (ENE) 16:27:39 437.490
HORYU 2 05 Mar 16:21:27 16:22:06 10° 271° (W) 16:22:27 437.375
CUTE-I 05 Mar 16:28:40 16:32:14 19° 65° (ENE) 16:35:59 437.470
AIST 2 05 Mar 16:35:34 16:39:26 36° 115° (ESE) 16:43:23 435.215
AUBIESAT-1 05 Mar 16:36:55 16:41:12 49° 104° (ESE) 16:45:45 437.475
M-CUBED/EXP-1 PRIME 05 Mar 16:37:45 16:42:05 56° 105° (ESE) 16:46:43 437.505
AIST 1 05 Mar 16:47:59 16:49:45 12° 69° (ENE) 16:51:45
MOZHAYETS 4 05 Mar 16:51:07 16:55:46 72° 101° (E) 17:00:25
AO-7 05 Mar 17:01:30 17:07:54 23° 268° (W) 17:13:56 29.400- 29.500
VERMONT LUNAR 05 Mar 17:03:06 17:06:36 76° 345° (NNW) 17:10:06 437.305
YUBILEINY 05 Mar 17:21:45 17:29:23 31° 290° (WNW) 17:36:52 435.215
CUBESAT XI-V 05 Mar 17:25:17 17:26:21 11° 88° (E) 17:27:46 437.345
BEESAT 3 05 Mar 17:29:27 17:32:34 20° 312° (NW) 17:35:38 437.485
JAS-2 05 Mar 17:30:07 17:32:58 13° 275° (W) 17:35:34 435.910
PHONESAT 2.4 05 Mar 17:30:40 17:34:19 88° 334° (NNW) 17:37:59 2401.200-2431.200
Cubesat XI-IV 05 Mar 17:58:37 18:03:56 63° 259° (W) 18:09:18 437.490
BEESAT 2 05 Mar 18:00:12 18:02:14 13° 317° (NW) 18:04:07 435.950
CUTE-I 05 Mar 18:06:42 18:11:56 53° 260° (W) 18:17:13 437.470
AUBIESAT-1 05 Mar 18:12:55 18:15:47 17° 296° (WNW) 18:18:35 437.475
M-CUBED/EXP-1 PRIME 05 Mar 18:14:10 18:16:42 15° 297° (WNW) 18:19:07 437.505
AIST 2 05 Mar 18:14:47 18:18:10 22° 312° (NW) 18:21:30 435.215
PRISM 05 Mar 18:18:33 18:22:34 41° 98° (E) 18:26:35 437.425
AIST 1 05 Mar 18:23:34 18:27:51 50° 266° (W) 18:32:04
MOZHAYETS 4 05 Mar 18:30:59 18:32:29 11° 295° (WNW) 18:33:43
HO-68 05 Mar 18:37:51 18:42:41 21° 60° (ENE) 18:47:47 435.675
VERMONT LUNAR 05 Mar 18:41:17 18:44:42 51° 2° (N) 18:48:07 437.305
O/OREOS (USA 219) 05 Mar 18:44:12 18:48:49 89° 68° (ENE) 18:53:23 437.305
STRAND 1 05 Mar 18:49:07 18:54:09 52° 100° (E) 18:59:09 437.568
GOMX 1 05 Mar 18:51:53 18:54:39 15° 67° (ENE) 18:57:34 467.674
CANX-2 05 Mar 18:52:52 18:53:20 10° 66° (ENE) 18:54:03 2200.000
CUBESAT XI-V 05 Mar 18:59:41 19:04:23 66° 284° (WNW) 19:09:00 437.345
BRITE-PL 05 Mar 19:02:24 19:07:06 29° 70° (ENE) 19:11:43 437.365/2234.400
CUTE 1.7 + AOD 2 05 Mar 19:09:01 19:11:18 15° 68° (ENE) 19:13:46 437.475
PHONESAT 2.4 05 Mar 19:09:23 19:12:57 52° 360° (N) 19:16:31 2401.200-2431.200
DOVE 4 05 Mar 19:10:34 19:13:14 15° 67° (ENE) 19:16:04 437.250
AAUSAT CUBESAT 2 05 Mar 19:39:15 19:42:08 19° 69° (ENE) 19:45:09 437.432
PCSat 05 Mar 19:41:40 19:47:01 68° 115° (ESE) 19:52:26 145.827
GONETS M04 05 Mar 19:43:09 19:45:50 12° 78° (ENE) 19:49:18
COMPASS 1 05 Mar 19:44:04 19:47:26 25° 71° (ENE) 19:50:53 437.405
PRISM 05 Mar 19:55:11 19:57:46 15° 293° (WNW) 20:00:12 437.425
Oscar 11 05 Mar 19:57:34 20:00:01 15° 68° (ENE) 20:02:38 145.826/435.025
SEEDS 05 Mar 20:15:46 20:19:55 75° 77° (ENE) 20:24:07 437.485
VERMONT LUNAR 05 Mar 20:19:14 20:22:44 80° 199° (SSW) 20:26:13 437.305
HO-68 05 Mar 20:22:39 20:29:46 74° 256° (WSW) 20:36:57 435.675
CANX-2 05 Mar 20:24:37 20:28:48 64° 259° (W) 20:33:00 2200.000
DELFI C3 05 Mar 20:25:54 20:29:04 23° 71° (ENE) 20:32:20 145.870
CUBEBUG 2 05 Mar 20:26:35 20:30:09 24° 71° (ENE) 20:33:43 437.445
GOMX 1 05 Mar 20:27:03 20:32:23 65° 259° (W) 20:37:27 467.674
DX 1 05 Mar 20:27:36 20:30:20 17° 67° (ENE) 20:33:12 434.975-435.025
CINEMA 3 05 Mar 20:28:16 20:32:49 48° 75° (ENE) 20:37:12 145.822/145.860
STRAND 1 05 Mar 20:29:30 20:32:59 18° 295° (WNW) 20:36:16 437.568
BRITE-PL 05 Mar 20:40:22 20:45:30 35° 264° (W) 20:50:23 437.365/2234.400
CUTE 1.7 + AOD 2 05 Mar 20:42:55 20:46:56 42° 262° (W) 20:50:57 437.475
DOVE 4 05 Mar 20:45:36 20:50:40 59° 260° (W) 20:55:28 437.250
PHONESAT 2.4 05 Mar 20:47:56 20:51:35 87° 14° (NNE) 20:55:14 2401.200-2431.200
FUNcube-1 05 Mar 20:48:17 20:51:55 27° 71° (ENE) 20:55:34 145.935
AISAT 05 Mar 20:48:24 20:49:48 12° 65° (ENE) 20:51:27 437.250
ZACube-1 05 Mar 20:50:43 20:54:29 30° 72° (ENE) 20:58:13 437.345
UKube-1 05 Mar 20:51:33 20:55:16 28° 70° (ENE) 20:59:02 .
VELOX 1 05 Mar 20:55:29 20:57:34 14° 66° (ENE) 20:59:52 145.980
RS-15 05 Mar 21:13:48 21:22:04 27° 105° (ESE) 21:30:50 29.354- 29.394
AAUSAT CUBESAT 2 05 Mar 21:13:55 21:17:37 30° 264° (W) 21:21:17 437.432
UWE-3 05 Mar 21:17:10 21:21:35 76° 76° (ENE) 21:25:54 435.000/436.395/437.385
COMPASS 1 05 Mar 21:19:46 21:23:08 23° 266° (W) 21:26:25 437.405
50 SAT 05 Mar 21:22:12 21:25:16 22° 70° (ENE) 21:28:24 437.505
ESTCUBE 1 05 Mar 21:24:23 21:26:26 13° 66° (ENE) 21:28:44 437.505/2401.250
PCSat 05 Mar 21:27:17 21:31:02 18° 314° (NW) 21:34:37 145.827
Oscar 11 05 Mar 21:31:48 21:35:54 42° 262° (W) 21:40:00 145.826/435.025
GONETS M04 05 Mar 21:32:48 21:41:27 77° 95° (E) 21:50:09
UNISAT 6 05 Mar 21:34:01 21:34:38 10° 89° (E) 21:35:31 437.425
TIGRISAT 05 Mar 21:55:14 21:58:14 19° 93° (E) 22:01:24 435.000
VERMONT LUNAR 05 Mar 21:57:50 22:00:19 18° 213° (SSW) 22:02:44 437.305
DELFI C3 05 Mar 22:00:56 22:04:13 23° 266° (W) 22:07:27 145.870
HUMSAT D 05 Mar 22:01:23 22:05:34 80° 258° (WSW) 22:09:44 437.325/437.525
DX 1 05 Mar 22:02:07 22:06:17 41° 261° (W) 22:10:27 434.975-435.025
CUBEBUG 2 05 Mar 22:02:57 22:06:48 27° 264° (W) 22:10:29 437.445
CINEMA 3 05 Mar 22:07:28 22:10:17 15° 269° (W) 22:12:50 145.822/145.860
ANTELSAT 05 Mar 22:10:16 22:14:00 29° 96° (E) 22:17:52 437.575/2403.000
NANOSAT C BR1 05 Mar 22:11:26 22:13:48 15° 91° (E) 22:16:20 145.865
CUBEBUG 1 05 Mar 22:12:52 22:16:59 39° 72° (ENE) 22:21:10 437.445
AISAT 05 Mar 22:21:27 22:25:56 66° 259° (W) 22:30:26 437.250
FUNcube-1 05 Mar 22:24:47 22:28:16 23° 266° (W) 22:31:37 145.935
TISAT 1 05 Mar 22:25:04 22:26:20 11° 66° (ENE) 22:27:50 437.305
DANDE 05 Mar 22:25:34 22:29:08 16° 94° (E) 22:32:30 436.750
PHONESAT 2.4 05 Mar 22:26:48 22:29:48 24° 211° (SSW) 22:32:45 2401.200-2431.200
ZACube-1 05 Mar 22:27:32 22:30:54 21° 266° (W) 22:34:06 437.345
UKube-1 05 Mar 22:27:57 22:31:26 23° 265° (W) 22:34:50 .
VELOX 1 05 Mar 22:29:20 22:33:44 55° 260° (W) 22:38:09 145.980
SPROUT 05 Mar 22:32:38 22:35:10 16° 68° (ENE) 22:37:53 437.525
CUSAT 1 05 Mar 22:33:29 22:37:53 22° 96° (E) 22:41:39 437.405
BUGSAT 1 05 Mar 22:36:15 22:39:20 21° 94° (E) 22:42:30 437.445
QB50P1 05 Mar 22:44:01 22:47:57 37° 98° (E) 22:51:51 145.935-145.965
QB50P2 05 Mar 22:49:04 22:53:07 43° 99° (E) 22:57:09 145.880/145.840
50 SAT 05 Mar 22:56:56 23:00:12 24° 265° (W) 23:03:23 437.505
ESTCUBE 1 05 Mar 22:58:27 23:02:54 57° 260° (W) 23:07:23 437.505/2401.250
DUCHIFAT 1 05 Mar 23:00:51 23:05:00 58° 100° (E) 23:09:08 145.980
UNISAT 6 05 Mar 23:07:37 23:11:52 60° 285° (WNW) 23:16:11 437.425
RS-15 05 Mar 23:22:38 23:33:32 73° 303° (WNW) 23:44:36 29.354- 29.394
POPSAT HIP 1 05 Mar 23:24:00 23:28:13 72° 284° (WNW) 23:32:23 437.405
POLYITAN 1 05 Mar 23:25:21 23:29:34 68° 284° (WNW) 23:33:44 437.675
TIGRISAT 05 Mar 23:31:14 23:35:07 33° 288° (WNW) 23:39:00 435.000
GONETS M04 05 Mar 23:33:05 23:39:25 21° 296° (WNW) 23:45:20
SWISSCUBE 05 Mar 23:41:21 23:43:57 15° 65° (ENE) 23:46:46 437.505
NANOSAT C BR1 05 Mar 23:45:57 23:49:54 39° 287° (WNW) 23:53:47 145.865
ANTELSAT 05 Mar 23:47:19 23:50:42 22° 290° (WNW) 23:54:02 437.575/2403.000
BEESAT 05 Mar 23:48:58 23:51:52 17° 66° (ENE) 23:54:57 436.000
CUBEBUG 1 05 Mar 23:50:36 23:53:34 17° 268° (W) 23:56:23 437.445
TISAT 1 05 Mar 23:57:28 00:01:42 60° 259° (W) 00:05:56 437.305
DANDE 06 Mar 00:05:56 00:12:30 60° 279° (W) 00:17:23 436.750
SPROUT 06 Mar 00:06:50 00:10:58 42° 262° (W) 00:15:06 437.525
BUGSAT 1 06 Mar 00:11:20 00:14:51 27° 289° (WNW) 00:18:16 437.445
BEESAT 3 06 Mar 00:12:17 00:14:45 16° 45° (NE) 00:17:19 437.485
CUSAT 1 06 Mar 00:15:11 00:20:43 37° 281° (W) 00:24:56 437.405
ITUPSAT 1 06 Mar 00:17:14 00:21:24 31° 70° (ENE) 00:25:40 437.325
QB50P1 06 Mar 00:20:47 00:23:34 17° 292° (WNW) 00:26:13 145.935-145.965
QB50P2 06 Mar 00:26:16 00:28:42 15° 293° (WNW) 00:30:58 145.880/145.840
JUGNU 06 Mar 00:32:35 00:33:41 11° 171° (S) 00:34:53 437.505
Oscar 19 06 Mar 00:36:29 00:39:49 18° 91° (E) 00:43:22 437.125/150
DUCHIFAT 1 06 Mar 00:39:02 00:40:25 11° 294° (WNW) 00:41:34 145.980
BEESAT 2 06 Mar 00:41:18 00:44:44 25° 50° (NE) 00:48:10 435.950
SO-50 06 Mar 00:49:18 00:53:52 83° 301° (WNW) 00:58:39 436.795
AIST 2 06 Mar 00:59:50 01:02:31 16° 45° (NE) 01:05:17 435.215
SWISSCUBE 06 Mar 01:16:44 01:21:25 55° 260° (W) 01:26:08 437.505
BEESAT 06 Mar 01:24:44 01:29:21 49° 260° (W) 01:34:00 436.000
YUBILEINY 06 Mar 01:37:01 01:43:35 24° 66° (ENE) 01:50:29 435.215
RS-15 06 Mar 01:39:56 01:48:24 24° 332° (NNW) 01:56:43 29.354- 29.394
BEESAT 3 06 Mar 01:49:09 01:53:11 51° 243° (WSW) 01:57:06 437.485
ITUPSAT 1 06 Mar 01:55:24 01:59:21 25° 266° (W) 02:03:13 437.325
STARS 06 Mar 02:10:18 02:14:40 61° 74° (ENE) 02:19:03 437.465
KKS-1 06 Mar 02:12:32 02:17:01 80° 257° (WSW) 02:21:31 437.445
Oscar 19 06 Mar 02:14:34 02:19:30 48° 288° (WNW) 02:24:24 437.125/150
Gurwin Techsat 1B 06 Mar 02:15:17 02:20:16 41° 98° (E) 02:25:17 435.225
JUGNU 06 Mar 02:19:11 02:21:52 13° 181° (S) 02:24:33 437.505
BEESAT 2 06 Mar 02:19:19 02:22:54 28° 247° (WSW) 02:26:23 435.950
ITAMSAT 1 06 Mar 02:21:02 02:26:14 62° 102° (ESE) 02:31:22 435.822/435.867
SRMSAT 06 Mar 02:28:42 02:30:45 12° 172° (S) 02:32:53 437.500
SO-50 06 Mar 02:33:22 02:35:18 12° 321° (NW) 02:37:03 436.795
HORYU 2 06 Mar 02:35:23 02:37:39 14° 91° (E) 02:40:09 437.375
AIST 2 06 Mar 02:37:19 02:41:29 51° 244° (WSW) 02:45:31 435.215
JAS-2 06 Mar 02:54:04 02:57:26 14° 85° (E) 03:01:25 435.910
AO-7 06 Mar 03:10:49 03:17:14 25° 93° (E) 03:23:55 29.400- 29.500
